Regional Weather Roundup
Issued by NWS

Home | Current Version | Previous Version | Graphics & Text | Print | Product List | Glossary On
Versions: 1 2 3 4 5 6 7 8 9 10 11 12 13 14 15 16 17 18 19 20 21 22 23 24 25 26 27 28 29 30 31 32 33 34 35 36 37 38 39 40 41 42 43 44 45 46 47 48 49 50
000
ASUS45 KCYS 311010
RWRWY

WYOMING REGIONAL WEATHER ROUNDUP
NATIONAL WEATHER SERVICE CHEYENNE WY
400 AM MDT FRI JUL 31 2015

NOTE:  "FAIR" INDICATES FEW OR NO CLOUDS BELOW 12,000 FEET
WITH NO SIGNIFICANT WEATHER AND/OR OBSTRUCTIONS TO VISIBILITY.

WYZ001-311100-
...YELLOWSTONE NATIONAL PARK...

CITY           SKY/WX    TMP DP  RH WIND       PRES   REMARKS
LK YELLOWSTONE   N/A     39  34  82 CALM      30.54S
W YELLOWSTONE  NOT AVBL

$$
WYZ002>013-054>058-071-098>099-311100-
...NORTHERN WYOMING...

CITY           SKY/WX    TMP DP  RH WIND       PRES   REMARKS
JACKSON        CLEAR     45  36  70 N6        30.44R
CODY           CLEAR     63  34  34 S6        30.32R
GREYBULL       CLEAR     58  40  51 CALM      30.24R
WORLAND        CLEAR     55  29  36 CALM      30.25R
SHERIDAN       CLEAR     53  43  68 CALM      30.25S
BUFFALO        CLEAR     63  35  35 W3        30.32S
GILLETTE       CLEAR     60  41  49 VRB5      30.27F
HULETT         FAIR      55  41  58 S7        30.29S
NEWCASTLE      FAIR      59  41  51 CALM      30.29S

$$
WYZ014>020-022>026-101>103-311100-
...CENTRAL WYOMING...

CITY           SKY/WX    TMP DP  RH WIND       PRES   REMARKS
BIG PINEY      CLEAR     43  29  57 E5        30.45S
PINEDALE       CLEAR     37  32  81 W5        30.45S WCI  34
DUBOIS         FAIR      46  30  53 NW10      30.47S
LANDER         CLEAR     63  27  25 W10       30.33S
RIVERTON       CLEAR     61  27  27 E3        30.34S
CASPER         CLEAR     50  33  52 NW6       30.33S
DOUGLAS        CLEAR     58  41  53 CALM      30.32R

$$
WYZ021-027>030-104>119-311100-
...SOUTHERN WYOMING...

CITY           SKY/WX    TMP DP  RH WIND       PRES   REMARKS
EVANSTON       PTCLDY    56  23  27 S6        30.44S
KEMMERER       CLEAR     50  28  43 N7        30.45S
FORT BRIDGER   CLEAR     63  23  22 W6        30.45F
ROCK SPRINGS   CLEAR     56  20  24 NE3       30.40S
DIXON          FAIR      53  28  38 SE7       30.41S
RAWLINS        CLEAR     50  35  56 SE3       30.42S
SARATOGA       FAIR      45  32  61 CALM      30.44R
LARAMIE        CLEAR     48  43  82 NW3       30.45S
CHEYENNE       CLEAR     55  52  89 W7        30.38S
TORRINGTON     CLEAR     58  52  80 SE5       30.26S
PINE BLUFFS    FAIR      52  50  93 W3        30.33F

$$


USA.gov is the U.S. government's official web portal to all federal, state and local government web resources and services.